GW4642 Weather Reports


time (UTC)temp
C
wind
direction
speed
KPH
gust
KPH
rain 1hr
cm
rain 24hr
cm
rain mn
cm
humidity
%
barometer
mb
20260510204524 28 229 3.2 4.8 0.00 0.00 0.00 43 1015.4
20260510204020 28 353 4.8 4.8 0.00 0.00 0.00 43 1015.4
20260510203518 28 354 4.8 9.7 0.00 0.00 0.00 44 1015.9
20260510203014 28 321 1.6 4.8 0.00 0.00 0.00 44 1016.0
20260510202508 28 351 0.0 4.8 0.00 0.00 0.00 46 1015.8
20260510202005 28 341 4.8 6.4 0.00 0.00 0.00 43 1015.6
20260510201503 28 303 4.8 6.4 0.00 0.00 0.00 42 1015.7
20260510200959 28 320 3.2 4.8 0.00 0.00 0.00 43 1015.8
20260510200454 28 152 0.0 3.2 0.00 0.00 0.00 47 1015.8
20260510195952 28 85 1.6 6.4 0.00 0.00 0.00 43 1015.9
20260510195450 27 256 1.6 6.4 0.00 0.00 0.00 44 1015.9
20260510194945 28 237 4.8 6.4 0.00 0.00 0.00 45 1016.1
20260510194441 29 251 0.0 3.2 0.00 0.00 0.00 42 1016.1
20260510193937 28 214 4.8 4.8 0.00 0.00 0.00 43 1016.2
20260510193432 28 337 3.2 4.8 0.00 0.00 0.00 45 1016.1
20260510192928 28 13 4.8 9.7 0.00 0.00 0.00 43 1016.0
20260510192423 28 345 3.2 6.4 0.00 0.00 0.00 43 1016.1
20260510191919 28 2 4.8 6.4 0.00 0.00 0.00 43 1016.1
20260510191415 28 1 6.4 8.0 0.00 0.00 0.00 41 1016.0
20260510190913 29 298 6.4 6.4 0.00 0.00 0.00 44 1016.0
20260510190410 28 250 3.2 4.8 0.00 0.00 0.00 40 1016.1
20260510185907 28 344 3.2 4.8 0.00 0.00 0.00 40 1016.1
20260510185404 28 184 4.8 6.4 0.00 0.00 0.00 44 1016.1
20260510184901 28 220 4.8 8.0 0.00 0.00 0.00 43 1016.1
20260510184359 28 296 1.6 8.0 0.00 0.00 0.00 43 1016.1
20260510183858 27 214 4.8 9.7 0.00 0.00 0.00 42 1016.0
20260510183355 28 264 1.6 4.8 0.00 0.00 0.00 46 1016.2
20260510182855 28 236 1.6 6.4 0.00 0.00 0.00 39 1016.2
20260510182352 28 228 1.6 3.2 0.00 0.00 0.00 40 1016.0
20260510181847 28 220 1.6 6.4 0.00 0.00 0.00 42 1015.9
20260510181345 28 240 0.0 4.8 0.00 0.00 0.00 40 1016.0
20260510180841 28 201 1.6 6.4 0.00 0.00 0.00 48 1016.0
20260510180338 28 231 1.6 4.8 0.00 0.00 0.00 46 1016.1
20260510175835 27 233 3.2 3.2 0.00 0.00 0.00 48 1016.2
20260510175331 27 138 1.6 6.4 0.00 0.00 0.00 51 1016.3
20260510174827 28 111 1.6 4.8 0.00 0.00 0.00 48 1016.4
20260510174325 27 22 1.6 6.4 0.00 0.00 0.00 47 1016.3
20260510173821 27 294 3.2 9.7 0.00 0.00 0.00 48 1016.4
20260510173317 28 59 3.2 11.3 0.00 0.00 0.00 46 1016.3
20260510172813 28 242 3.2 6.4 0.00 0.00 0.00 47 1016.5
20260510172309 28 206 6.4 6.4 0.00 0.00 0.00 44 1016.5
20260510171806 27 69 3.2 6.4 0.00 0.00 0.00 44 1016.5
20260510171303 27 331 3.2 9.7 0.00 0.00 0.00 45 1016.7
20260510170755 27 311 3.2 9.7 0.00 0.00 0.00 46 1016.8
20260510170251 27 12 6.4 9.7 0.00 0.00 0.00 45 1016.8
20260510165746 28 336 3.2 12.9 0.00 0.00 0.00 44 1016.8
20260510165243 28 326 1.6 6.4 0.00 0.00 0.00 45 1016.7
20260510164740 27 332 1.6 4.8 0.00 0.00 0.00 48 1016.7
20260510164238 28 7 4.8 8.0 0.00 0.00 0.00 46 1016.8
20260510163737 28 243 0.0 4.8 0.00 0.00 0.00 49 1016.7
20260510163234 27 13 3.2 4.8 0.00 0.00 0.00 46 1017.0
20260510162734 27 75 1.6 6.4 0.00 0.00 0.00 47 1016.8
20260510162232 27 19 3.2 8.0 0.00 0.00 0.00 49 1016.9
20260510161727 27 215 3.2 6.4 0.00 0.00 0.00 46 1016.8
20260510161223 27 351 0.0 4.8 0.00 0.00 0.00 49 1017.0
20260510160720 27 345 3.2 4.8 0.00 0.00 0.00 52 1016.6
20260510160215 27 242 3.2 4.8 0.00 0.00 0.00 50 1016.7
20260510155712 26 190 3.2 4.8 0.00 0.00 0.00 50 1016.7
20260510155208 26 218 3.2 8.0 0.00 0.00 0.00 48 1016.7
20260510154703 26 312 4.8 4.8 0.00 0.00 0.00 49 1016.9
20260510154159 26 341 6.4 6.4 0.00 0.00 0.00 49 1016.7
20260510153654 25 302 4.8 4.8 0.00 0.00 0.00 53 1016.6
20260510153151 25 216 6.4 11.3 0.00 0.00 0.00 57 1016.6
20260510152648 25 226 3.2 4.8 0.00 0.00 0.00 54 1016.4
20260510152143 25 81 1.6 4.8 0.00 0.00 0.00 58 1016.5
20260510151641 25 43 0.0 4.8 0.00 0.00 0.00 58 1016.4
20260510151139 24 216 3.2 3.2 0.00 0.00 0.00 62 1016.7
20260510150634 23 187 3.2 4.8 0.00 0.00 0.00 62 1016.5
20260510150130 25 195 4.8 4.8 0.00 0.00 0.00 60 1016.5
20260510145627 23 144 1.6 3.2 0.00 0.00 0.00 59 1016.5
20260510145123 23 206 0.0 3.2 0.00 0.00 0.00 60 1016.4
20260510144619 23 237 3.2 6.4 0.00 0.00 0.00 62 1016.5
20260510144115 23 187 0.0 3.2 0.00 0.00 0.00 61 1016.3
20260510143611 22 199 1.6 6.4 0.00 0.00 0.00 61 1016.1
20260510143108 23 170 1.6 3.2 0.00 0.00 0.00 64 1016.3
20260510142604 22 183 0.0 1.6 0.00 0.00 0.00 66 1016.3
20260510142101 21 304 0.0 8.0 0.00 0.00 0.00 68 1016.3
20260510141558 22 185 4.8 6.4 0.00 0.00 0.00 66 1016.3
20260510141056 21 212 0.0 4.8 0.00 0.00 0.00 67 1016.0
20260510140552 20 230 1.6 6.4 0.00 0.00 0.00 73 1016.2
20260510140051 20 187 1.6 9.7 0.00 0.00 0.00 75 1016.3
20260510135547 20 157 3.2 4.8 0.00 0.00 0.00 75 1016.4
20260510135043 20 204 3.2 4.8 0.00 0.00 0.00 77 1016.5
20260510134540 19 194 4.8 6.4 0.00 0.00 0.00 76 1016.3
20260510134038 20 262 1.6 6.4 0.00 0.00 0.00 75 1016.4
20260510133533 20 183 1.6 3.2 0.00 0.00 0.00 73 1016.4
20260510133029 19 231 0.0 4.8 0.00 0.00 0.00 76 1016.4
20260510132526 18 204 1.6 3.2 0.00 0.00 0.00 78 1016.5
20260510132023 19 187 4.8 9.7 0.00 0.00 0.00 77 1016.4
20260510131521 18 304 0.0 3.2 0.00 0.00 0.00 81 1016.5
20260510131018 17 218 0.0 4.8 0.00 0.00 0.00 84 1016.3
20260510130514 17 186 1.6 4.8 0.00 0.00 0.00 84 1016.5
20260510130012 17 157 3.2 6.4 0.00 0.00 0.00 85 1016.2
20260510125508 16 175 4.8 4.8 0.00 0.00 0.00 87 1016.3
20260510125004 16 209 3.2 4.8 0.00 0.00 0.00 87 1016.0
20260510124501 16 246 0.0 3.2 0.00 0.00 0.00 89 1016.3
20260510123958 16 180 3.2 4.8 0.00 0.00 0.00 87 1016.2
20260510123453 16 89 0.0 0.0 0.00 0.00 0.00 84 1016.2
20260510122950 16 50 0.0 3.2 0.00 0.00 0.00 87 1015.9
20260510122445 16 66 0.0 1.6 0.00 0.00 0.00 87 1016.1
20260510121941 15 49 0.0 3.2 0.00 0.00 0.00 90 1016.0
20260510121439 15 175 0.0 3.2 0.00 0.00 0.00 93 1015.7
20260510120936 14 44 0.0 0.0 0.00 0.00 0.00 96 1015.6
20260510120433 13 53 0.0 1.6 0.00 0.00 0.00 97 1015.7
20260510115929 13 209 0.0 1.6 0.00 0.00 0.00 98 1015.6
20260510115427 13 60 0.0 6.4 0.00 0.00 0.00 99 1015.6
20260510114927 13 31 3.2 3.2 0.00 0.00 0.00 99 1015.5
20260510114424 12 218 0.0 4.8 0.00 0.00 0.00 99 1015.5
20260510113920 12 30 1.6 3.2 0.00 0.00 0.00 99 1015.3
20260510113415 12 77 0.0 4.8 0.00 0.00 0.00 99 1015.3
20260510112913 12 0 3.2 3.2 0.00 0.00 0.00 99 1014.9
20260510112410 12 273 0.0 1.6 0.00 0.00 0.00 99 1014.9
20260510111906 12 129 0.0 0.0 0.00 0.00 0.00 99 1014.8
20260510111402 11 63 0.0 1.6 0.00 0.00 0.00 99 1014.6
20260510110858 11 116 0.0 0.0 0.00 0.00 0.00 98 1014.5
20260510110355 11 31 0.0 1.6 0.00 0.00 0.00 98 1014.5
20260510105851 11 77 0.0 1.6 0.00 0.00 0.00 98 1014.4
20260510105350 11 77 0.0 3.2 0.00 0.00 0.00 98 1014.2
20260510104847 11 57 0.0 1.6 0.00 0.00 0.00 98 1014.3
20260510104344 11 113 0.0 1.6 0.00 0.00 0.00 97 1014.2
20260510103840 12 173 0.0 1.6 0.00 0.00 0.00 97 1014.1
20260510103337 12 100 0.0 1.6 0.00 0.00 0.00 97 1014.0
20260510102833 12 110 0.0 3.2 0.00 0.00 0.00 97 1014.1
20260510102328 12 119 0.0 1.6 0.00 0.00 0.00 97 1013.8
20260510101826 12 29 0.0 1.6 0.00 0.00 0.00 96 1013.8
20260510101324 12 55 0.0 1.6 0.00 0.00 0.00 95 1013.8
20260510100820 12 180 0.0 3.2 0.00 0.00 0.00 96 1013.7
20260510100318 12 55 0.0 1.6 0.00 0.00 0.00 95 1013.8
20260510095814 12 110 0.0 1.6 0.00 0.00 0.00 94 1013.7
20260510095309 12 9 0.0 1.6 0.00 0.00 0.00 94 1013.7
20260510094808 12 69 0.0 0.0 0.00 0.00 0.00 94 1013.5
20260510094258 12 177 3.2 4.8 0.00 0.00 0.00 96 1013.4
20260510093754 11 147 0.0 3.2 0.00 0.00 0.00 95 1013.4
20260510093251 11 116 0.0 0.0 0.00 0.00 0.00 94 1013.4
20260510092748 11 116 0.0 1.6 0.00 0.00 0.00 94 1013.6
20260510092243 11 125 1.6 1.6 0.00 0.00 0.00 94 1013.5
20260510091739 11 125 1.6 3.2 0.00 0.00 0.00 94 1013.6
20260510091237 11 113 0.0 0.0 0.00 0.00 0.00 93 1013.7
20260510090733 11 129 0.0 1.6 0.00 0.00 0.00 93 1013.5
20260510090230 11 124 0.0 1.6 0.00 0.00 0.00 92 1013.4
20260510085725 11 32 0.0 1.6 0.00 0.00 0.00 92 1013.5
20260510085220 12 50 0.0 1.6 0.00 0.00 0.00 92 1013.1
20260510084716 12 110 0.0 3.2 0.00 0.00 0.00 92 1013.2
20260510084213 11 131 0.0 3.2 0.00 0.00 0.00 93 1013.2
20260510083710 11 114 0.0 1.6 0.00 0.00 0.00 93 1013.3
20260510083207 11 32 0.0 1.6 0.00 0.00 0.00 93 1012.9
20260510082702 11 56 0.0 0.0 0.00 0.00 0.00 93 1013.0
20260510082158 11 32 0.0 1.6 0.00 0.00 0.00 92 1012.8
20260510081653 11 113 0.0 0.0 0.00 0.00 0.00 92 1012.9
20260510081149 11 50 0.0 0.0 0.00 0.00 0.00 92 1013.0
20260510080648 12 44 0.0 1.6 0.00 0.00 0.00 92 1012.9
20260510080146 12 118 1.6 3.2 0.00 0.00 0.00 92 1012.9
20260510075642 12 141 0.0 1.6 0.00 0.00 0.00 92 1013.1
20260510075140 12 128 0.0 1.6 0.00 0.00 0.00 92 1013.0
20260510074636 12 89 0.0 1.6 0.00 0.00 0.00 92 1012.9
20260510074132 12 103 0.0 0.0 0.00 0.00 0.00 91 1013.0
20260510073629 12 130 0.0 0.0 0.00 0.00 0.00 91 1013.2
20260510073125 12 110 0.0 1.6 0.00 0.00 0.00 90 1013.1
20260510072621 12 145 0.0 1.6 0.00 0.00 0.00 90 1013.1
20260510072118 12 50 0.0 1.6 0.00 0.00 0.00 89 1013.2
20260510071614 13 130 0.0 0.0 0.00 0.00 0.00 87 1013.1
20260510071112 13 185 3.2 3.2 0.00 0.00 0.00 87 1013.0
20260510070609 12 34 0.0 4.8 0.00 0.00 0.00 90 1013.0
20260510070106 12 170 0.0 0.0 0.00 0.00 0.00 92 1012.7
20260510065557 12 50 0.0 0.0 0.00 0.00 0.00 92 1013.0
20260510065053 12 55 0.0 0.0 0.00 0.00 0.00 92 1012.7
20260510064550 12 66 0.0 0.0 0.00 0.00 0.00 92 1012.7
20260510064046 12 55 0.0 0.0 0.00 0.00 0.00 92 1012.6
20260510063544 12 55 0.0 0.0 0.00 0.00 0.00 91 1012.6
20260510063040 12 50 0.0 1.6 0.00 0.00 0.00 90 1012.6
20260510062536 12 140 0.0 0.0 0.00 0.00 0.00 89 1012.6
20260510062032 12 103 0.0 0.0 0.00 0.00 0.00 90 1012.7
20260510061528 13 105 0.0 1.6 0.00 0.00 0.00 89 1012.6
20260510061025 13 111 1.6 3.2 0.00 0.00 0.00 88 1012.7
20260510060521 13 139 0.0 3.2 0.00 0.00 0.00 87 1012.6
20260510060017 13 147 0.0 1.6 0.00 0.00 0.00 87 1012.5
20260510055513 13 135 0.0 1.6 0.00 0.00 0.00 87 1012.6
20260510055012 13 110 0.0 3.2 0.00 0.00 0.00 88 1012.4
20260510054507 13 159 0.0 1.6 0.00 0.00 0.00 89 1012.5
20260510054003 13 129 0.0 0.0 0.00 0.00 0.00 89 1012.5
20260510053457 13 37 0.0 0.0 0.00 0.00 0.00 89 1012.6
20260510052955 13 32 0.0 1.6 0.00 0.00 0.00 89 1012.6
20260510052450 13 127 0.0 0.0 0.00 0.00 0.00 88 1012.8
20260510051947 13 150 1.6 1.6 0.00 0.00 0.00 87 1012.7
20260510051442 13 98 0.0 0.0 0.00 0.00 0.00 86 1012.5
20260510050939 13 129 0.0 1.6 0.00 0.00 0.00 85 1012.7
20260510050436 13 144 0.0 3.2 0.00 0.00 0.00 86 1012.7
20260510045934 13 142 0.0 0.0 0.00 0.00 0.00 88 1012.6
20260510045430 13 157 0.0 0.0 0.00 0.00 0.00 86 1012.4
20260510044926 14 129 0.0 0.0 0.00 0.00 0.00 84 1012.5
20260510044424 14 114 1.6 3.2 0.00 0.00 0.00 86 1012.5
20260510043920 14 135 1.6 3.2 0.00 0.00 0.00 86 1012.7
20260510043416 14 120 0.0 1.6 0.00 0.00 0.00 84 1012.5
20260510042914 14 139 1.6 1.6 0.00 0.00 0.00 84 1012.6
20260510042410 14 129 0.0 0.0 0.00 0.00 0.00 84 1012.5
20260510041906 14 147 0.0 1.6 0.00 0.00 0.00 85 1012.6
20260510041403 13 142 0.0 0.0 0.00 0.00 0.00 85 1012.5
20260510040901 14 135 0.0 1.6 0.00 0.00 0.00 85 1012.5
20260510040358 14 135 0.0 1.6 0.00 0.00 0.00 84 1012.4
20260510035853 15 135 0.0 1.6 0.00 0.00 0.00 83 1012.6
20260510035349 15 140 1.6 1.6 0.00 0.00 0.00 82 1012.5
20260510034844 15 130 0.0 3.2 0.00 0.00 0.00 81 1012.5
20260510034343 15 147 0.0 3.2 0.00 0.00 0.00 79 1012.7
20260510033839 15 135 0.0 0.0 0.00 0.00 0.00 77 1012.6
20260510033336 16 133 1.6 3.2 0.00 0.00 0.00 77 1012.6
20260510032832 16 158 3.2 3.2 0.00 0.00 0.00 77 1012.7
20260510032329 16 150 0.0 1.6 0.00 0.00 0.00 75 1012.7
20260510031825 16 63 0.0 1.6 0.00 0.00 0.00 73 1012.6
20260510031320 16 124 0.0 1.6 0.00 0.00 0.00 73 1012.5
20260510030815 16 52 1.6 1.6 0.00 0.00 0.00 74 1012.6
20260510030312 16 186 0.0 0.0 0.00 0.00 0.00 73 1012.6
20260510025809 16 130 0.0 0.0 0.00 0.00 0.00 74 1012.4
20260510025306 16 42 1.6 1.6 0.00 0.00 0.00 75 1012.5
20260510024803 16 44 0.0 0.0 0.00 0.00 0.00 74 1012.3
20260510024300 16 135 0.0 0.0 0.00 0.00 0.00 74 1012.4
20260510023756 16 33 0.0 1.6 0.00 0.00 0.00 73 1012.3
20260510023253 16 89 0.0 1.6 0.00 0.00 0.00 71 1012.3
20260510022749 17 37 0.0 0.0 0.00 0.00 0.00 73 1012.3
20260510022244 16 37 0.0 0.0 0.00 0.00 0.00 72 1012.2
20260510021743 17 118 0.0 1.6 0.00 0.00 0.00 71 1012.1
20260510021242 17 40 0.0 0.0 0.00 0.00 0.00 70 1012.1
20260510020736 17 66 0.0 0.0 0.00 0.00 0.00 69 1012.0
20260510020236 17 32 0.0 1.6 0.00 0.00 0.00 69 1011.8
20260510015733 17 157 0.0 0.0 0.00 0.00 0.00 67 1011.8
20260510015230 18 142 0.0 0.0 0.00 0.00 0.00 66 1011.8
20260510014730 18 157 0.0 1.6 0.00 0.00 0.00 64 1011.7
20260510014228 18 192 0.0 1.6 0.00 0.00 0.00 62 1011.4
20260510013723 19 175 0.0 3.2 0.00 0.00 0.00 61 1011.6
20260510013219 19 126 0.0 0.0 0.00 0.00 0.00 61 1011.5
20260510012719 19 207 0.0 0.0 0.00 0.00 0.00 58 1011.3
20260510012214 19 173 0.0 0.0 0.00 0.00 0.00 58 1011.2
20260510011709 20 209 0.0 0.0 0.00 0.00 0.00 58 1011.4
20260510011205 20 142 0.0 0.0 0.00 0.00 0.00 56 1011.3
20260510010701 20 157 0.0 1.6 0.00 0.00 0.00 57 1011.3
20260510010158 20 184 0.0 1.6 0.00 0.00 0.00 53 1011.2
20260510005654 20 217 0.0 3.2 0.00 0.00 0.00 56 1011.1
20260510005151 21 205 0.0 1.6 0.00 0.00 0.00 55 1011.1
20260510004650 21 195 0.0 1.6 0.00 0.00 0.00 56 1011.1
20260510004147 21 180 0.0 1.6 0.00 0.00 0.00 57 1011.1
20260510003645 22 269 0.0 1.6 0.00 0.00 0.00 55 1010.9
20260510003140 22 157 0.0 1.6 0.00 0.00 0.00 52 1010.9
20260510002635 22 185 1.6 3.2 0.00 0.00 0.00 49 1010.9
20260510002132 22 205 0.0 1.6 0.00 0.00 0.00 49 1011.0
20260510001629 23 205 0.0 3.2 0.00 0.00 0.00 49 1010.8
20260510001128 23 229 0.0 3.2 0.00 0.00 0.00 48 1010.8
20260510000628 23 183 0.0 4.8 0.00 0.00 0.00 47 1010.8
20260510000126 23 237 1.6 3.2 0.00 0.00 0.00 44 1010.8
20260509235621 23 207 0.0 3.2 0.00 0.00 0.00 44 1010.8
20260509235119 24 223 3.2 3.2 0.00 0.00 0.00 44 1010.7
20260509234614 24 181 4.8 4.8 0.00 0.00 0.00 42 1010.6
20260509234112 24 215 0.0 4.8 0.00 0.00 0.00 42 1010.5
20260509233610 25 45 0.0 3.2 0.00 0.00 0.00 43 1010.3
20260509233107 25 204 3.2 4.8 0.00 0.00 0.00 43 1010.5
20260509232603 25 207 0.0 3.2 0.00 0.00 0.00 42 1010.4
20260509232100 25 190 0.0 3.2 0.00 0.00 0.00 42 1010.3
20260509231557 25 269 0.0 3.2 0.00 0.00 0.00 43 1010.5
20260509231054 25 199 3.2 4.8 0.00 0.00 0.00 41 1010.5
20260509230551 25 238 0.0 1.6 0.00 0.00 0.00 41 1010.4
20260509230048 25 6 0.0 1.6 0.00 0.00 0.00 39 1010.3
20260509225548 25 197 0.0 3.2 0.00 0.00 0.00 41 1010.5
20260509225044 25 242 0.0 8.0 0.00 0.00 0.00 42 1010.3
20260509224540 25 220 6.4 6.4 0.00 0.00 0.00 40 1010.5
20260509224037 26 192 1.6 3.2 0.00 0.00 0.00 41 1010.6
20260509223534 26 291 0.0 4.8 0.00 0.00 0.00 41 1010.5
20260509223032 26 241 0.0 9.7 0.00 0.00 0.00 39 1010.5
20260509222527 28 269 0.0 3.2 0.00 0.00 0.00 34 1010.4
20260509222023 28 325 3.2 4.8 0.00 0.00 0.00 34 1010.5
20260509221519 28 269 0.0 3.2 0.00 0.00 0.00 35 1010.3
20260509221015 28 315 0.0 6.4 0.00 0.00 0.00 37 1010.5
20260509220512 27 113 1.6 3.2 0.00 0.00 0.00 38 1010.4
20260509220008 28 287 0.0 3.2 0.00 0.00 0.00 36 1010.3
20260509215503 28 234 3.2 4.8 0.00 0.00 0.00 37 1010.4
20260509215001 27 333 0.0 3.2 0.00 0.00 0.00 36 1010.4
20260509214458 28 287 1.6 3.2 0.00 0.00 0.00 37 1010.3
20260509213954 27 285 1.6 11.3 0.00 0.00 0.00 42 1010.2
20260509213451 27 9 0.0 6.4 0.00 0.00 0.00 39 1010.4
20260509212948 27 193 0.0 11.3 0.00 0.00 0.00 38 1010.2
20260509212445 28 234 3.2 4.8 0.00 0.00 0.00 39 1010.2
20260509211942 28 316 3.2 6.4 0.00 0.00 0.00 38 1010.1
20260509211437 28 253 3.2 3.2 0.00 0.00 0.00 41 1010.2
20260509210934 27 252 1.6 6.4 0.00 0.00 0.00 42 1010.1
20260509210431 28 202 4.8 4.8 0.00 0.00 0.00 39 1009.9
20260509205926 28 253 0.0 4.8 0.00 0.00 0.00 40 1010.0
20260509205422 28 254 3.2 6.4 0.00 0.00 0.00 40 1010.1
20260509204917 27 349 3.2 4.8 0.00 0.00 0.00 42 1010.1